| time (UTC) | temp F | wind direction | speed MPH | gust MPH | rain 1hr in | rain 24hr in | rain mn in | humidity % | barometer mb |
| 20260504000011 | 62 | 261 | 0.0 | 3.0 | 0.00 | 0.00 | 0.00 | 49 | 1016.7 |
| 20260503234520 | 64 | 262 | 0.0 | 3.0 | 0.00 | 0.00 | 0.00 | 44 | 1016.8 |
| 20260503233021 | 66 | 136 | 0.0 | 4.0 | 0.00 | 0.00 | 0.00 | 44 | 1016.8 |
| 20260503231504 | 66 | 238 | 1.0 | 4.0 | 0.00 | 0.00 | 0.00 | 41 | 1017.0 |
| 20260503230012 | 66 | 204 | 1.0 | 7.0 | 0.00 | 0.00 | 0.00 | 41 | 1017.2 |
| 20260503224517 | 67 | 271 | 0.0 | 9.0 | 0.00 | 0.00 | 0.00 | 41 | 1017.2 |
| 20260503223020 | 66 | 226 | 2.0 | 6.0 | 0.00 | 0.00 | 0.00 | 40 | 1017.4 |
| 20260503221525 | 66 | 219 | 4.0 | 11.0 | 0.00 | 0.00 | 0.00 | 38 | 1017.5 |
| 20260503220007 | 66 | 250 | 2.0 | 9.0 | 0.00 | 0.00 | 0.00 | 37 | 1017.7 |
| 20260503214532 | 66 | 205 | 3.0 | 9.0 | 0.00 | 0.00 | 0.00 | 35 | 1017.7 |
| 20260503213016 | 67 | 271 | 2.0 | 8.0 | 0.00 | 0.00 | 0.00 | 35 | 1017.8 |
| 20260503211520 | 66 | 225 | 1.0 | 7.0 | 0.00 | 0.00 | 0.00 | 35 | 1018.1 |
| 20260503210023 | 66 | 262 | 3.0 | 7.0 | 0.00 | 0.00 | 0.00 | 36 | 1018.1 |
| 20260503204507 | 66 | 225 | 3.0 | 8.0 | 0.00 | 0.00 | 0.00 | 36 | 1018.4 |
| 20260503203012 | 66 | 230 | 3.0 | 9.0 | 0.00 | 0.00 | 0.00 | 38 | 1018.7 |
| 20260503201518 | 66 | 276 | 3.0 | 11.0 | 0.00 | 0.00 | 0.00 | 38 | 1018.9 |
| 20260503200032 | 66 | 240 | 2.0 | 7.0 | 0.00 | 0.00 | 0.00 | 36 | 1019.2 |
| 20260503194527 | 66 | 178 | 3.0 | 9.0 | 0.00 | 0.00 | 0.00 | 35 | 1019.5 |
| 20260503193013 | 66 | 223 | 1.0 | 8.0 | 0.00 | 0.00 | 0.00 | 34 | 1019.6 |
| 20260503191519 | 65 | 187 | 3.0 | 11.0 | 0.00 | 0.00 | 0.00 | 41 | 1019.7 |
| 20260503190021 | 65 | 228 | 2.0 | 9.0 | 0.00 | 0.00 | 0.00 | 40 | 1019.9 |
| 20260503184533 | 65 | 96 | 1.0 | 7.0 | 0.00 | 0.00 | 0.00 | 37 | 1020.1 |
| 20260503183028 | 65 | 238 | 3.0 | 8.0 | 0.00 | 0.00 | 0.00 | 37 | 1020.2 |